Weather History for Bishop, CA

Change the Weather History Date:

Thursday, June 6, 2013

  Actual Average Record
Temperature  
Mean Temperature 77 °F 69 °F  
Max Temperature 101 °F 89 °F 102 °F (2010)
Min Temperature 53 °F 49 °F 32 °F (1988)
Degree Days  
Heating Degree Days 0 1  
Month to date heating degree days 0 9  
Since 1 June heating degree days 0 9  
Since 1 July heating degree days 3851 4167  
Cooling Degree Days 12 5  
Month to date cooling degree days 67 29  
Year to date cooling degree days 153 97  
Since 1 June cooling degree days 67 29  
Growing Degree Days 26 (Base 50)    
Moisture  
Dew Point 25 °F    
Average Humidity 23    
Maximum Humidity 41    
Minimum Humidity 4    
Precipitation  
Precipitation 0.00 in 0.00 in 0.10 in (1963)
Month to date precipitation T 0.04  
Year to date precipitation 0.47 2.92  
Snow  
Snow 0.00 in 0.00 in - ()
Month to date snowfall 0.0 0.0  
Since 1 June snowfall 0.0 0.0  
Since 1 July snowfall 2.8 6.8  
Snow Depth 0.00 in    
Sea Level Pressure  
Sea Level Pressure 29.83 in    
Wind  
Wind Speed 5 mph (NNW)    
Max Wind Speed 15 mph    
Max Gust Speed 18 mph    
Visibility 10 miles    
Events      
T = Trace of Precipitation, MM = Missing Value Source: NWS Daily Summary

Daily Weather History Graph

Daily Weather History Graph

Search for Another Location

Airport:

Trip Planner

Search our weather history database for the weather conditions in past years. The results will help you decide how hot, cold, wet, or windy it might be!

Date:

Astronomy

Jun. 06, 2013 Rise Set
Actual Time 5:32 AM PDT 8:11 PM PDT
Civil Twilight 5:02 AM PDT 8:42 PM PDT
Nautical Twilight 4:23 AM PDT 9:20 PM PDT
Astronomical Twilight 3:40 AM PDT 10:03 PM PDT
Moon 4:15 AM PDT (6/6) 6:39 PM PDT (6/6)
Length of Visible Light 15h 40m
Length of Day
14h 39m
Waning Crescent, 3% of the Moon is Illuminated
Jun 6
Waning Crescent
Jun 8
New
Jun 16
First Quarter
Jun 23
Full
Jun 29
Last Quarter

Hourly Weather History & Observations

Time (PDT) Temp. Dew Point Humidity Pressure Visibility Wind Dir Wind Speed Gust Speed Precip Events Conditions
12:56 AM 64.9 °F 28.9 °F 26% 29.85 in 10.0 mi North 6.9 mph - N/A   Clear
1:56 AM 61.0 °F 28.0 °F 29% 29.86 in 10.0 mi North 8.1 mph - N/A   Clear
2:56 AM 64.0 °F 32.0 °F 30% 29.85 in 10.0 mi Calm Calm - N/A   Clear
3:56 AM 55.0 °F 30.9 °F 40% 29.87 in 10.0 mi NW 5.8 mph - N/A   Clear
4:56 AM 55.0 °F 30.0 °F 38% 29.88 in 10.0 mi Calm Calm - N/A   Clear
5:56 AM 55.9 °F 32.0 °F 40% 29.90 in 10.0 mi NNW 4.6 mph - N/A   Clear
6:56 AM 64.0 °F 30.0 °F 28% 29.90 in 10.0 mi Calm Calm - N/A   Clear
7:56 AM 73.9 °F 32.0 °F 21% 29.90 in 10.0 mi NW 5.8 mph - N/A   Clear
8:56 AM 80.1 °F 28.9 °F 15% 29.89 in 10.0 mi Calm Calm - N/A   Clear
9:56 AM 88.0 °F 25.0 °F 10% 29.87 in 10.0 mi NE 3.5 mph - N/A   Clear
10:56 AM 90.0 °F 19.0 °F 7% 29.87 in 10.0 mi Calm Calm - N/A   Clear
11:56 AM 95.0 °F 19.0 °F 6% 29.85 in 10.0 mi Calm Calm - N/A   Clear
12:56 PM 97.0 °F 17.1 °F 5% 29.83 in 10.0 mi Variable 5.8 mph - N/A   Clear
1:56 PM 97.0 °F 12.9 °F 5% 29.82 in 10.0 mi SSW 5.8 mph 16.1 mph N/A   Clear
2:56 PM 96.1 °F 15.1 °F 5% 29.79 in 10.0 mi North 9.2 mph - N/A   Clear
3:56 PM 100.0 °F 16.0 °F 5% 29.77 in 10.0 mi North 9.2 mph - N/A   Clear
4:56 PM 99.0 °F 14.0 °F 5% 29.74 in 10.0 mi NNW 4.6 mph - N/A   Clear
5:56 PM 99.0 °F 18.0 °F 5% 29.73 in 10.0 mi NNE 13.8 mph 18.4 mph N/A   Clear
6:56 PM 93.9 °F 18.0 °F 6% 29.74 in 10.0 mi North 4.6 mph - N/A   Clear
7:56 PM 91.0 °F 27.0 °F 10% 29.74 in 10.0 mi West 11.5 mph - N/A   Clear
8:56 PM 87.1 °F 28.9 °F 12% 29.76 in 10.0 mi WNW 6.9 mph - N/A   Clear
9:56 PM 78.1 °F 30.0 °F 17% 29.80 in 10.0 mi NNE 8.1 mph - N/A   Clear
10:56 PM 79.0 °F 30.0 °F 17% 29.80 in 10.0 mi NNW 9.2 mph - N/A   Clear
11:56 PM 73.0 °F 32.0 °F 22% 29.81 in 10.0 mi WNW 5.8 mph - N/A   Clear